Back to catalog

FENGYUN 1C DEB

AliveSSO
NORAD 30540·DEBRIS·🇨🇳 China

Launched May 10, 1999 from Taiyuan Satellite Launch Center

Loading…

Next Passes (next 24 hours)

TLE

FreshSource: Space-Track

Epoch: Sep 13, 2026, 14:03 UTC

1 30540U 99025AKE 26256.58593924  .00002679  00000-0  94700-3 0  9990
2 30540  98.8891  17.1780 0049635 335.4493 152.4328 14.34824833 12243

Track FENGYUN 1C DEB in real time with AllMySat

Download on the App Store